カタログに戻る

STARLINK-5853

運用中通信VLEO
NORAD 56881·PAYLOAD·🇺🇸 United States

打ち上げ Jun 12, 2023 から Cape Canaveral Space Force Station

Loading…

次のパス (今後24時間)

TLE

最新Source: CelesTrak SupGP

元期: Sep 15, 2026, 02:51 UTC

1 56881C 23083F   26258.11923611  .00014881  00000+0  53894-3 0  2582
2 56881  43.0002  95.7973 0001640 261.8819 201.5184 15.27572734    10

AllMySatでSTARLINK-5853をリアルタイム追跡

Download on the App Store